Weather History for Graham, TX

Change the Weather History Date:

Thursday, January 2, 2014

  Actual Average (KMWL) Record (KMWL)
Temperature  
Mean Temperature 32 °F -  
Max Temperature 41 °F 56 °F 89 °F (1999)
Min Temperature 22 °F 33 °F 18 °F (2008)
Degree Days  
Heating Degree Days 34    
Moisture  
Dew Point 17 °F    
Average Humidity 62    
Maximum Humidity 81    
Minimum Humidity 36    
Precipitation  
Precipitation 0.00 in - - ()
Sea Level Pressure  
Sea Level Pressure 30.43 in    
Wind  
Wind Speed 10 mph (NNW)    
Max Wind Speed 18 mph    
Max Gust Speed 28 mph    
Visibility 10 miles    
Events      
Averages and records for this station are not official NWS values.
T = Trace of Precipitation, MM = Missing Value Source: NWS Daily Summary

Daily Weather History Graph

Daily Weather History Graph

Search for Another Location

Airport:

Trip Planner

Search our weather history database for the weather conditions in past years. The results will help you decide how hot, cold, wet, or windy it might be!

Date:

Astronomy

Jan. 02, 2014 Rise Set
Actual Time 7:37 AM CST 5:39 PM CST
Civil Twilight 7:10 AM CST 6:06 PM CST
Nautical Twilight 6:39 AM CST 6:37 PM CST
Astronomical Twilight 6:09 AM CST 7:07 PM CST
Moon 8:26 AM CST (1/2) 7:30 PM CST (1/2)
Length of Visible Light 10h 56m
Length of Day
10h 01m
Waxing Crescent, 3% of the Moon is Illuminated
Jan 2
Waxing Crescent
Jan 7
First Quarter
Jan 15
Full
Jan 23
Last Quarter
Jan 30
New

Hourly Weather History & Observations

Time (CST) Temp. Windchill Dew Point Humidity Pressure Visibility Wind Dir Wind Speed Gust Speed Precip Events Conditions
12:15 AM 29.3 °F 17.3 °F 20.7 °F 70% 30.30 in 10.0 mi NW 17.3 mph 24.2 mph N/A   Clear
12:35 AM 29.1 °F 18.4 °F 20.8 °F 71% 30.32 in 10.0 mi NW 13.8 mph 23.0 mph N/A   Clear
12:55 AM 28.8 °F 16.6 °F 20.8 °F 72% 30.33 in 10.0 mi NNW 17.3 mph 27.6 mph N/A   Clear
1:15 AM 28.0 °F 15.3 °F 20.5 °F 73% 30.34 in 10.0 mi NNW 18.4 mph 25.3 mph N/A   Clear
1:35 AM 27.5 °F 18.0 °F 20.7 °F 75% 30.35 in 10.0 mi NW 10.4 mph 21.9 mph N/A   Clear
1:55 AM 27.1 °F 16.4 °F 20.3 °F 75% 30.37 in 10.0 mi NW 12.7 mph - N/A   Clear
2:15 AM 26.2 °F 15.2 °F 19.2 °F 75% 30.38 in 10.0 mi NNW 12.7 mph 25.3 mph N/A   Scattered Clouds
2:35 AM 25.7 °F 13.5 °F 19.0 °F 76% 30.38 in 10.0 mi NW 15.0 mph 19.6 mph N/A   Scattered Clouds
2:55 AM 25.3 °F 14.7 °F 18.9 °F 76% 30.39 in 10.0 mi NNW 11.5 mph 19.6 mph N/A   Scattered Clouds
3:15 AM 25.0 °F 14.2 °F 18.7 °F 77% 30.39 in 10.0 mi NW 11.5 mph 17.3 mph N/A   Scattered Clouds
3:35 AM 24.6 °F 15.8 °F 18.3 °F 77% 30.40 in 10.0 mi NNW 8.1 mph - N/A   Clear
3:55 AM 24.4 °F 14.9 °F 18.3 °F 78% 30.41 in 10.0 mi NW 9.2 mph 16.1 mph N/A   Clear
4:15 AM 24.1 °F 14.4 °F 18.1 °F 78% 30.41 in 10.0 mi NNW 9.2 mph - N/A   Clear
4:35 AM 23.9 °F 14.2 °F 17.6 °F 77% 30.42 in 10.0 mi NNW 9.2 mph - N/A   Clear
4:55 AM 23.7 °F 14.0 °F 17.4 °F 77% 30.42 in 10.0 mi NNW 9.2 mph 17.3 mph N/A   Clear
5:15 AM 23.5 °F 14.5 °F 17.2 °F 77% 30.42 in 10.0 mi NW 8.1 mph - N/A   Clear
5:35 AM 23.4 °F 14.3 °F 16.9 °F 76% 30.43 in 10.0 mi NNW 8.1 mph 16.1 mph N/A   Clear
5:55 AM 23.0 °F 12.4 °F 17.1 °F 78% 30.43 in 10.0 mi NW 10.4 mph - N/A   Clear
6:15 AM 23.0 °F 15.8 °F 17.2 °F 79% 30.44 in 10.0 mi NNW 5.8 mph - N/A   Clear
6:35 AM 22.8 °F 12.9 °F 17.2 °F 79% 30.44 in 10.0 mi NNW 9.2 mph - N/A   Clear
6:55 AM 22.8 °F 13.6 °F 17.2 °F 79% 30.44 in 10.0 mi NNW 8.1 mph - N/A   Clear
7:15 AM 22.5 °F 14.1 °F 17.4 °F 81% 30.45 in 10.0 mi NNW 6.9 mph - N/A   Scattered Clouds
7:35 AM 22.5 °F 12.4 °F 17.4 °F 81% 30.47 in 10.0 mi NW 9.2 mph - N/A   Clear
7:55 AM 22.6 °F 11.9 °F 17.4 °F 80% 30.47 in 10.0 mi NW 10.4 mph 17.3 mph N/A   Clear
8:15 AM 23.0 °F 11.1 °F 17.1 °F 78% 30.47 in 10.0 mi NNW 12.7 mph - N/A   Clear
8:35 AM 23.9 °F 11.7 °F 16.9 °F 75% 30.48 in 10.0 mi NNW 13.8 mph 19.6 mph N/A   Clear
8:55 AM 25.2 °F 13.3 °F 16.7 °F 70% 30.48 in 10.0 mi NNW 13.8 mph 17.3 mph N/A   Clear
9:15 AM 26.1 °F 16.2 °F 16.3 °F 67% 30.50 in 10.0 mi NNW 10.4 mph - N/A   Clear
9:35 AM 27.3 °F 16.1 °F 16.5 °F 64% 30.51 in 10.0 mi NNW 13.8 mph 18.4 mph N/A   Clear
9:55 AM 28.0 °F 17.5 °F 16.2 °F 61% 30.51 in 10.0 mi NNW 12.7 mph - N/A   Clear
10:15 AM 29.1 °F 18.4 °F 16.2 °F 58% 30.51 in 10.0 mi NNW 13.8 mph 18.4 mph N/A   Clear
10:35 AM 30.2 °F 19.3 °F 15.8 °F 55% 30.52 in 10.0 mi NNW 15.0 mph 19.6 mph N/A   Clear
10:55 AM 30.9 °F 21.2 °F 15.8 °F 54% 30.50 in 10.0 mi North 12.7 mph 19.6 mph N/A   Clear
11:15 AM 32.0 °F 22.1 °F 15.8 °F 51% 30.50 in 10.0 mi NNW 13.8 mph 18.4 mph N/A   Clear
11:35 AM 33.1 °F 24.9 °F 16.2 °F 50% 30.50 in 10.0 mi NNW 10.4 mph - N/A   Clear
11:55 AM 34.3 °F 25.9 °F 16.2 °F 47% 30.49 in 10.0 mi NNW 11.5 mph - N/A   Clear
12:15 PM 34.9 °F 27.7 °F 16.0 °F 46% 30.48 in 10.0 mi NNW 9.2 mph - N/A   Clear
12:35 PM 36.1 °F 29.9 °F 16.2 °F 44% 30.47 in 10.0 mi NW 8.1 mph - N/A   Clear
12:55 PM 36.9 °F 29.6 °F 16.3 °F 43% 30.46 in 10.0 mi NNW 10.4 mph - N/A   Clear
1:15 PM 37.9 °F 33.5 °F 16.0 °F 41% 30.45 in 10.0 mi NW 5.8 mph - N/A   Clear
1:35 PM 38.8 °F 34.6 °F 16.2 °F 40% 30.45 in 10.0 mi WNW 5.8 mph - N/A   Clear
1:55 PM 39.6 °F 33.5 °F 16.7 °F 40% 30.44 in 10.0 mi West 9.2 mph - N/A   Clear
2:15 PM 39.9 °F 36.7 °F 16.0 °F 38% 30.43 in 10.0 mi NW 4.6 mph - N/A   Clear
2:35 PM 40.3 °F 36.3 °F 16.5 °F 38% 30.42 in 10.0 mi West 5.8 mph - N/A   Clear
2:55 PM 40.8 °F 36.9 °F 16.3 °F 37% 30.42 in 10.0 mi WNW 5.8 mph - N/A   Clear
3:15 PM 41.2 °F 39.2 °F 16.2 °F 36% 30.42 in 10.0 mi NW 3.5 mph - N/A   Clear
3:35 PM 41.9 °F 38.2 °F 16.3 °F 36% 30.41 in 10.0 mi North 5.8 mph - N/A   Clear
3:55 PM 41.9 °F 37.5 °F 16.3 °F 36% 30.41 in 10.0 mi NNW 6.9 mph - N/A   Clear
4:15 PM 41.9 °F 40.0 °F 16.5 °F 36% 30.41 in 10.0 mi North 3.5 mph - N/A   Clear
4:35 PM 41.9 °F 40.0 °F 16.5 °F 36% 30.41 in 10.0 mi NW 3.5 mph - N/A   Clear
4:55 PM 41.0 °F 39.0 °F 17.1 °F 38% 30.41 in 10.0 mi North 3.5 mph - N/A   Clear
5:15 PM 40.5 °F - 16.9 °F 39% 30.40 in 10.0 mi Calm Calm - N/A   Clear
5:35 PM 39.4 °F - 17.2 °F 41% 30.40 in 10.0 mi Calm Calm - N/A   Clear
5:55 PM 37.8 °F - 17.8 °F 44% 30.40 in 10.0 mi Calm Calm - N/A   Clear
6:15 PM 35.8 °F - 17.1 °F 47% 30.40 in 10.0 mi Calm Calm - N/A   Clear
6:35 PM 35.1 °F - 16.7 °F 47% 30.41 in 10.0 mi Calm Calm - N/A   Clear
6:55 PM 32.4 °F - 16.5 °F 52% 30.41 in 10.0 mi Calm Calm - N/A   Clear
7:15 PM 31.8 °F - 17.4 °F 55% 30.41 in 10.0 mi Calm Calm - N/A   Clear
7:35 PM 30.6 °F - 18.0 °F 60% 30.41 in 10.0 mi Calm Calm - N/A   Clear
7:55 PM 29.1 °F - 18.0 °F 63% 30.41 in 10.0 mi Calm Calm - N/A   Clear
8:15 PM 28.4 °F - 17.4 °F 63% 30.41 in 10.0 mi Calm Calm - N/A   Clear
8:35 PM 27.5 °F - 18.0 °F 67% 30.41 in 10.0 mi Calm Calm - N/A   Clear
8:55 PM 27.3 °F 23.4 °F 17.6 °F 67% 30.41 in 10.0 mi ENE 3.5 mph - N/A   Clear
9:15 PM 26.2 °F 22.1 °F 17.6 °F 70% 30.42 in 10.0 mi ENE 3.5 mph - N/A   Clear
9:35 PM 25.7 °F - 17.2 °F 70% 30.42 in 10.0 mi Calm Calm - N/A   Clear
9:55 PM 25.2 °F 20.9 °F 17.4 °F 72% 30.42 in 10.0 mi East 3.5 mph - N/A   Clear
10:15 PM 24.8 °F - 18.1 °F 76% 30.42 in 10.0 mi Calm Calm - N/A   Scattered Clouds
10:35 PM 24.8 °F - 17.4 °F 74% 30.41 in 10.0 mi Calm Calm - N/A   Scattered Clouds
10:55 PM 24.8 °F - 17.2 °F 73% 30.41 in 10.0 mi Calm Calm - N/A   Clear
11:15 PM 25.3 °F - 17.4 °F 72% 30.41 in 10.0 mi Calm Calm - N/A   Clear
11:35 PM 25.7 °F - 17.6 °F 71% 30.41 in 10.0 mi Calm Calm - N/A   Clear
11:55 PM 25.7 °F - 17.6 °F 71% 30.40 in 10.0 mi Calm Calm - N/A   Clear